P/2005 R2 (Van Ness)

Epoch 2005 Jan. 30.0 TT = JDT 2453400.5  

T 2005 Feb. 10.08985 TT                                 Nakano

q   2.1281197            (2000.0)            P               Q

n   0.15544381     Peri.    3.08394     +0.71644252     +0.68532290

a   3.4257350      Node   312.72929     -0.64382090     +0.57741384

e   0.3787845      Incl.   10.23699     -0.26870944     +0.44376320

P   6.34

From 837 observations 2005 Aug. 4-2006 Nov. 22, mean residual 0".53.

Residuals in seconds of arc 

2005/                     051015 939  0.6-  0.2+    051203 565  0.1+  1.3+  

050804 704  1.6+  0.5-    051015 504 (0.2-  2.3+)   051203 939  0.1+  0.2-  

050804 704  0.0   0.9-    051015 J97  0.3-  0.1+    051203 939  0.2+  0.1-  

050804 704  0.2+  1.2-    051015 504 (0.2+  2.1+)   051203 939  0.2+  0.1+  

050804 704 (1.8+  2.2-)   051015 504  0.7-  0.8+    051204 703  0.3+  0.6+  

050804 704  0.5+  1.5+    051015 504 (0.0   2.0+)   051204 703  0.8+  0.1+  

050816 704  1.7-  0.3+    051015 504  0.9-  0.8+    051204 703  0.7+  0.1-  

050816 704  1.1+  1.5-    051015 504  0.7-  0.7+    051204 703  1.2+  0.9-  

050816 704  1.1+  0.7-    051015 504  0.9-  1.2+    051204 442 (2.7+  0.3+) 

050816 704  1.8+  1.5+    051015 504  0.8-  0.8+    051204 442 (0.4-  2.1+) 

050831 704 (1.0-  2.4-)   051016 I77  0.2+  0.4+    051205 442  0.1-  1.0+  

050831 704 (4.8-  0.1+)   051016 118  0.1-  0.1-    051205 442  0.7-  0.3-  

050831 704  0.1-  0.6-    051016 118  0.1+  0.1-    051205 213  0.5-  0.1-  

050831 704  1.3-  1.3+    051016 118  0.5-  0.1+    051205 213  0.0   0.1+  

050831 704 (1.1+  3.1+)   051016 I77  0.2+  0.4-    051205 213  0.9+  0.1+  

050910 699(12.7-  6.7-)   051016 I77  0.4-  0.3+    051205 939  0.9+  0.1-  

050910 699(19.9-  9.1-)   051019 J97  0.7-  0.4-    051205 939  0.6+  0.1-  

050910 699(22.4- 10.0-)   051019 J97  0.2-  0.1-    051205 939  0.1+  0.1+  

050910 A50  0.4-  0.3+    051019 J97  0.2+  0.2-    051206 372  0.5+  1.3+  

050910 A50  0.5-  0.3+    051020 673  0.1-  0.6+    051206 442  1.8+  1.2+  

050910 A50  0.0   0.0     051020 673  0.0   0.5+    051206 442  1.4-  0.3-  

050910 A50  0.3-  0.4+    051020 673  0.0   0.6+    051206 442 (0.7+  2.0-) 

050910 A50  0.3-  0.4+    051020 673  0.1-  0.5+    051208 372 (1.1+  2.3+) 

050910 A50  0.4-  0.5+    051020 619  0.5-  0.6+    051208 442  0.0   0.5-  

050910 232  0.3-  0.1+    051020 619  0.5-  0.3+    051209 939  1.3-  0.5-  

050910 232  0.3-  0.1-    051020 619  0.1+  1.4-    051209 939  0.6-  0.2-  

050910 232  0.2-  0.2-    051020 213  0.6+  0.7+    051209 939  0.1-  0.1+  

050911 232  0.1+  0.2-    051020 213  0.0   0.2+    051210 H47  0.2-  1.6-  

050911 232  0.0   0.3-    051020 213  0.2+  0.6+    051210 H47 (1.2+  2.0+) 

050911 232  0.1-  0.1-    051021 673  0.2-  0.6+    051210 A50  0.7+  0.4-  

050911 232  0.2+  0.4-    051021 673  0.1-  0.6+    051210 A50  0.3+  0.4-  

050911 232  0.2-  0.0     051021 673  0.2-  0.5+    051210 A50  0.2+  0.4-  

050911 232  0.4-  0.1-    051021 673  0.4-  0.6+    051212 118  0.4-  0.4-  

050911 232  0.0   0.2-    051021 232  0.1+  0.0     051212 118  0.4+  0.3-  

050911 232  0.3-  0.1-    051021 232  0.2-  0.2-    051212 118 (2.1+  0.6+) 

050911 232  0.2-  0.2+    051021 232  0.1-  0.1-    051213 213  0.7+  0.7-  

050911 I77  0.2-  0.2-    051022 939  0.3-  0.3-    051213 213  0.6+  0.7-  

050911 I77  0.1-  0.4-    051022 939  0.3-  0.6-    051213 213  0.3+  0.8+  

050911 I77  0.2-  0.3-    051022 939  0.3-  0.9-    051214 442  0.5+  0.5-  

050911 734  0.0   0.1-    051023 379  0.4+  0.2+    051214 442 (2.4-  1.0+) 

050911 734  0.7+  0.1-    051023 379  0.1+  0.1+    051215 442  1.8-  1.7+  

050911 854  0.3-  0.2+    051023 379  0.1-  0.0     051216 J97  1.3+  0.3-  

050911 854  0.4-  0.1+    051023 349  0.1-  0.3-    051216 442  1.7-  0.9+  

050911 854  0.3-  0.1+    051023 349  0.1-  0.2-    051216 442  0.7+  0.1-  

050911 349  0.1-  0.2+    051023 349  0.3-  0.2-    051216 A32  0.4+  0.1-  

050911 349  0.1-  0.1+    051023 355  0.0   0.1+    051216 A32  0.4-  0.3-  

050911 349  0.0   0.2-    051023 355  0.4-  0.6-    051217 349  1.4+  0.1-  

050911 349  0.2+  0.0     051023 355  0.2-  0.2-    051217 349  1.1+  0.1+  

050911 213  0.1-  0.5+    051023 355  0.3-  0.1-    051217 349  1.3+  0.2-  

050911 213  0.0   0.3+    051023 J76  0.3-  0.3+    051218 D88  0.6-  0.5-  

050911 213  0.1+  0.5+    051023 J76  0.2-  0.1+    051218 D88  0.4-  0.3+  

050912 673  0.6+  0.5+    051023 J76  0.2+  0.1+    051218 D88  0.6-  0.2-  

050912 673  0.4+  0.3+    051024 H47  0.4-  0.2-    051220 372  0.6+  0.1-  

050912 673  0.4+  0.2+    051024 H47  1.5-  1.7+    051220 170  0.9+  1.2-  

050912 673  0.4+  0.4+    051024 379  0.7-  0.0     051220 A32  0.6+  0.1-  

050912 699 (3.0-  1.2-)   051024 379  0.5-  0.4+    051220 A32  0.6+  0.4+  

050912 699 (5.0-  2.7-)   051024 379  0.6-  0.1-    051220 442  0.3+  0.2+  

050912 699 (5.8-  3.1-)   051024 442  1.5+  0.6+    051222 619  1.5+  0.1-  

050912 699 (6.1-  3.3-)   051024 J97  1.0-  1.0-    051222 619  1.1-  0.8-  

050912 D88  0.7+  0.2+    051024 J97  0.0   0.4-    051222 619 (3.5+  5.6-) 

050912 D88  0.5-  0.3+    051024 J97  0.1-  0.3-    051223 D88  0.8+  0.7-  

050912 D88  0.2-  0.1-    051024 J97  0.3-  0.7-    051223 D88  0.4-  0.6-  

050912 349  0.1-  0.3+    051026 A79  0.3+  0.0     051223 D88  0.6-  0.1-  

050912 349  0.1-  0.3+    051026 A79  0.6+  0.3+    051223 170  0.7+  0.1+  

050912 349  0.3-  0.2+    051026 A79  0.2+  0.8+    051223 939  0.5+  0.1+  

050912 D83  0.2-  0.4-    051026 240  0.0   0.3-    051223 J76  0.2-  0.5+  

050912 D83  1.0-  0.2-    051026 240  0.1-  0.3-    051223 J76  0.6+  0.4-  

050912 D83  0.1+  0.6+    051026 240  0.0   0.4-    051223 J76  0.0   0.2-  

050912 D83  0.5-  0.5-    051026 240  0.0   0.4-    051223 939  0.5+  0.2-  

050912 372  0.2-  0.1+    051026 215  0.1-  0.2-    051223 939  1.2+  0.0   

050912 372  0.8-  0.7+    051026 215  0.1-  0.2-    051224 H47  0.4+  1.2-  

050912 372  0.5-  0.2+    051026 215  0.1-  0.3-    051224 H47  1.0-  0.4-  

050913 204  0.1-  0.0     051026 A32  0.7+  0.6-    051225 232  0.2+  0.7+  

050913 204  0.1-  0.1-    051026 A32  0.6+  0.5-    051225 232  0.6+  0.4+  

050913 673  0.1-  1.0+    051026 A32  0.3-  1.1-    051225 232 (3.0+  0.6-) 

050913 673  0.2-  0.7+    051026 A32  0.4+  0.6-    051225 048  0.5+  0.9+  

050913 673  0.3-  0.8+    051027 349  0.5-  0.3-    051225 048  0.1+  0.3+  

050913 673  0.1-  0.8+    051027 349  0.3-  0.5-    051225 048  0.6-  0.4+  

050913 673  0.1-  0.7+    051027 349  0.2-  0.2-    051225 048  0.1+  0.5+  

050913 673  0.2-  0.6+    051027 D70  0.3+  0.1-    051225 048  0.1+  1.0+  

050914 704 (2.0+  1.8-)   051027 D70  0.1+  0.4-    051225 J97 (0.8-  2.3-) 

050914 704  0.8-  0.6+    051027 D70  0.3+  1.0-    051225 213  0.2-  0.2-  

050914 704  1.8-  1.3-    051027 143  0.1-  0.3-    051225 213  0.2-  0.1-  

050914 704  0.3-  0.4+    051027 143  0.1-  0.3-    051227 H47  0.5-  0.5+  

050914 704 (3.3-  1.9+)   051027 143  0.2-  0.4-    051227 H47 (1.6-  2.0-) 

050914 349  0.0   0.4-    051027 143  0.0   0.3-    051227 D88  0.6+  0.1-  

050914 349  0.2+  0.2-    051028 A32  0.6-  0.2-    051227 D88  0.4+  0.3-  

050914 349  0.0   0.2+    051028 A32  0.4-  0.4-    051227 D88  0.9+  0.3+  

050914 379  0.5+  0.2-    051028 A32  0.2-  0.2-    051228 349  0.3+  0.3+  

050914 379  0.5+  0.2-    051028 A32  0.0   0.6-    051228 349  0.2+  0.3+  

050914 379  0.8+  0.3-    051029 A32  0.3-  0.5-    051228 349  0.1+  0.6+  

050914 379  1.0+  0.5+    051029 A32  0.1-  0.6-    051230 D88  0.2+  0.3-  

050916 349  0.3-  0.4+    051029 A32  0.2-  0.6-    051230 D88  0.5+  0.2-  

050916 349  0.2-  0.2+    051029 A32  0.0   0.5-    051230 D88  0.8+  0.2-  

050916 349  0.3-  0.2+    051029 442  0.0   0.4+    051231 349  0.4+  0.3-  

050917 349  0.2-  0.5+    051030 A32  0.3-  0.4-    051231 349  0.5+  0.2-  

050917 349  0.3-  0.5+    051030 A32  0.0   0.2-    051231 349  0.3+  0.1-  

050917 349  0.2-  0.2+    051030 A32  0.2-  0.2-    051231 232  0.4-  0.9+  

050918 349  0.1-  0.9+    051030 A32  0.1-  0.7-    2006/                   

050918 349  0.1-  0.8+    051030 644  0.1-  1.3-    060101 213  0.3+  0.3+  

050918 349  0.1+  0.9+    051030 644  0.3-  1.5-    060101 442  1.4-  0.3-  

050918 048  0.7-  0.2+    051030 H47  0.8+  0.4+    060101 939  0.1+  0.1+  

050918 048  0.4-  0.4+    051030 644  0.8-  0.5-    060101 J76  0.5+  0.6-  

050918 048  0.3-  0.3+    051030 H47  0.2+  1.7-    060101 939  0.3+  0.1-  

050918 048  0.3-  0.2-    051030 A79  1.2+  0.3-    060101 J76  0.3+  0.1+  

050918 048  0.9-  0.1-    051030 A79  0.0   0.0     060101 J76  0.1+  0.7+  

050918 J97  0.1+  0.2+    051030 A79  0.6+  0.6+    060101 213  0.3-  0.5+  

050918 118  0.1+  0.2+    051030 A18  0.2-  0.1+    060101 213  0.2+  0.6-  

050918 118  0.4+  0.1-    051031 379  0.2+  0.1+    060101 939  1.0+  0.0   

050918 118  0.0   0.2+    051031 379  0.2+  0.5-    060101 J97  0.4+  0.3+  

050919 213  0.3+  0.5+    051031 379  0.7+  0.1+    060102 J76  0.0   0.4+  

050919 213  0.4+  0.2+    051031 349  0.0   0.4-    060102 J76  0.5+  0.2+  

050919 213  0.3+  0.2+    051031 349  0.0   0.5-    060102 J76  0.8-  0.4-  

050920 048  0.6+  0.4+    051031 349  0.1+  0.3-    060103 939  0.3-  0.5-  

050920 048  0.1+  0.2+    051031 352  0.3+  0.6-    060103 939  0.2-  0.3-  

050920 048  0.2+  0.2+    051031 352  0.0   0.5-    060103 939  0.2-  0.4+  

050920 048  0.4+  0.3+    051031 352  0.0   0.5-    060103 J76  0.0   0.8+  

050920 048  0.4+  0.3+    051031 372  0.9-  0.6-    060103 J76  0.0   0.3+  

050921 048  0.0   0.8+    051031 442  0.3-  0.5+    060103 J76  1.3+  0.1-  

050921 048  0.3-  0.6+    051031 A32  0.3-  0.4-    060105 704 (2.6-  0.7+) 

050921 048  0.2-  0.5+    051031 A32  0.1-  0.6-    060105 704  1.4-  0.0   

